Regional Weather Roundup
Issued by NWS Binghamton, NY

Home | Current Version | Previous Version | Text Only | Print | Product List | Glossary On
Versions: 1 2 3 4 5 6 7 8 9 10 11 12 13 14 15 16 17 18 19 20 21 22 23 24 25 26 27 28 29 30 31 32 33 34 35 36 37 38 39 40 41 42 43 44 45 46 47 48 49 50
000
ASUS41 KBGM 051710
RWRBGM
RWRBGM
BINGHAMTON REGIONAL WEATHER ROUNDUP
NATIONAL WEATHER SERVICE BINGHAMTON NY
100 PM EDT SUN JUL 05 2015

Note: "fair" indicates few or no clouds below 12,000 feet with no
significant weather and/or obstructions to visibility.

* = Station(s) that does not report precipitation, such as rain,
snow, etc, also no thunder or fog.

!NYZ009-015>018-022>025-036-037-044>046-055>057-062-051800
...CENTRAL NEW YORK...

CITY           SKY/WX    TMP DP  RH WIND       PRES   REMARKS
BINGHAMTON     MOSUNNY   75  58  55 VRB5      30.18S
CORTLAND       FAIR      75  59  57 W7        30.19R
DANSVILLE      SUNNY     78  58  49 N6        30.16S
ELMIRA         PTSUNNY   77  60  55 VRB6      30.15S
ITHACA         MOSUNNY   77  59  53 W6        30.18R
MONTICELLO     SUNNY     75  61  60 CALM      30.17F
NORWICH        CLOUDY    75  59  57 SW6       30.17R
ONEONTA        MOSUNNY   72  55  56 W7        30.18S
PENN YAN       SUNNY     78  57  48 CALM      30.17R
ROME           SUNNY     76  59  55 W8        30.14S
SIDNEY         SUNNY     77  64  65 CALM      30.17S
SYRACUSE       MOSUNNY   78  62  57 W9        30.13S
$$

!PAZ038>040-043-044-047-048-072-051800
...NORTHEAST PENNSYLVANIA...

CITY           SKY/WX    TMP DP  RH WIND       PRES   REMARKS
HAZLETON       PTSUNNY   72  57  60 CALM      30.23S
SCRANTON       MOSUNNY   76  60  57 VRB3      30.17F
TOWANDA*       MOSUNNY   75  55  50 MISG      30.17S
$$
&&
KEY
WCI = WIND CHILL INDEX
VSB = VISIBILITY
HX  = HEAT INDEX
$$



USA.gov is the U.S. government's official web portal to all federal, state and local government web resources and services.